Theta_e
295 295 295 295 295 295 295 295 295 296 296 296 297 298 299 300 302 299 296 300 294 287 289 289 290 287 286 287 285 284 285 284 284 283 284 283 283 283 283 282 280 284 283 284 285 284 281 283 281 285 284 281 283 284
294 294 295 295 295 294 294 294 295 295 295 296 296 298 298 299 301 301 293 298 297 290 288 291 291 292 290 289 287 285 286 285 287 285 284 284 281 280 281 279 281 281 284 285 284 283 280 281 282 283 283 283 283 286
293 293 294 294 294 294 294 293 294 294 295 295 296 297 298 299 300 301 295 293 292 286 286 284 286 290 292 291 292 286 285 287 285 286 285 283 280 282 279 280 279 280 282 282 282 280 280 283 285 284 283 283 283 283
292 292 292 293 293 293 293 293 293 294 294 295 295 296 297 298 299 301 293 294 293 286 280 280 287 286 289 290 290 290 288 287 286 286 285 284 281 282 281 281 281 281 282 279 276 279 281 283 284 285 286 282 281 281
291 292 292 292 292 292 293 293 293 293 293 294 295 295 297 298 298 299 296 296 296 288 280 279 281 284 287 289 289 290 288 286 285 284 283 281 281 280 279 278 278 279 280 280 279 282 284 284 286 286 285 283 280 280
291 291 291 291 291 292 292 292 292 293 293 293 294 294 295 297 297 295 285 293 295 294 283 273 282 281 282 285 287 287 287 285 285 284 281 280 280 281 279 277 280 280 281 285 281 284 285 285 286 285 283 281 281 280
290 290 290 290 291 291 292 292 292 293 293 293 294 294 294 296 294 288 286 290 296 294 284 277 277 282 281 281 280 281 283 283 284 282 280 279 278 282 278 274 280 280 281 280 283 282 279 279 279 281 282 282 281 279
289 290 290 290 291 291 291 291 292 292 292 293 293 294 295 296 295 292 293 297 296 287 285 280 275 278 282 279 275 280 279 280 280 280 278 278 278 279 273 280 279 279 279 279 280 279 279 279 279 278 278 277 275 276
289 289 289 290 291 291 291 290 291 291 292 292 293 294 293 291 285 287 297 298 295 288 282 277 271 273 281 280 278 276 280 273 278 274 277 278 273 271 274 277 275 272 275 276 277 276 276 277 276 275 274 273 274 275
288 289 289 290 290 290 290 290 291 291 291 292 290 285 282 285 294 296 291 285 284 285 285 277 275 273 281 279 275 274 276 271 266 273 278 271 269 272 270 269 268 268 268 270 274 274 273 273 274 275 274 274 274 274
288 289 289 289 290 290 290 290 290 290 290 287 284 283 287 293 290 285 281 280 281 278 281 273 274 275 280 272 271 277 272 271 266 268 268 264 264 268 266 265 265 265 265 266 267 269 270 270 271 272 272 269 268 268
288 289 289 289 289 289 290 290 290 288 286 287 287 287 285 283 283 279 278 279 278 275 274 272 272 275 274 279 272 273 270 273 265 269 266 264 266 262 261 260 261 260 259 261 262 263 264 264 263 264 263 262 262 262
288 288 289 289 289 290 291 291 291 292 291 286 284 281 279 279 274 273 271 273 271 275 275 275 274 275 275 279 274 276 269 268 274 266 263 262 262 258 257 257 257 256 257 258 259 260 260 259 258 257 258 259 258 258
288 287 287 287 288 289 290 291 292 291 285 278 277 273 274 272 274 272 267 274 275 275 276 278 276 276 275 273 275 270 273 270 267 261 262 258 254 252 254 254 252 253 253 255 255 256 256 256 255 254 255 255 255 254
286 285 285 284 287 288 290 292 293 288 282 277 276 268 273 266 266 263 265 266 271 279 279 275 275 277 273 274 274 271 268 266 265 262 256 255 253 254 253 252 250 251 251 252 252 252 253 253 252 252 252 252 253 254
285 284 281 285 287 290 291 291 284 277 269 269 262 264 263 266 264 265 270 273 277 280 277 278 275 274 272 272 270 269 266 262 258 253 256 257 254 253 252 251 250 249 249 250 249 250 251 251 250 249 250 252 252 252
282 275 283 284 285 283 284 278 274 268 267 265 261 259 260 261 261 261 265 265 269 279 274 276 272 271 274 268 261 254 253 254 256 255 255 254 253 251 252 251 250 249 248 248 247 248 248 249 251 253 252 251 251 251
273 277 282 283 282 278 270 270 269 266 261 262 260 259 257 257 260 259 260 262 264 274 273 267 268 259 256 259 255 254 255 255 256 254 253 253 253 252 252 252 250 248 248 248 248 249 251 252 253 252 250 249 250 250
277 277 280 281 279 271 267 265 266 259 259 260 263 263 261 258 258 257 257 259 259 258 258 256 250 249 249 250 250 251 252 252 252 255 254 253 252 252 251 250 252 251 250 249 250 251 250 251 252 252 251 252 251 250
278 279 278 277 277 269 263 262 266 262 257 259 261 259 258 256 257 257 254 255 255 251 247 247 246 247 248 249 251 251 252 253 253 254 254 254 254 252 251 251 252 251 251 250 253 254 253 253 254 254 252 252 250 249
272 271 272 269 266 264 261 261 259 260 261 258 259 261 258 257 253 252 252 253 249 248 247 247 247 249 250 250 251 251 252 252 251 251 250 252 254 253 252 253 253 253 254 254 254 253 253 251 251 251 248 247 247 249
265 271 261 265 264 263 260 261 260 261 259 258 258 257 254 252 251 250 253 249 247 248 248 248 248 248 249 248 249 250 250 251 251 253 254 254 251 252 251 252 253 251 251 251 252 252 251 251 249 248 247 247 249 248
265 264 259 256 257 257 256 262 259 259 257 256 257 254 252 251 252 255 248 248 248 251 250 250 250 251 250 251 252 251 251 252 251 251 252 252 253 253 252 251 251 250 250 251 252 251 250 253 251 249 248 248 248 248
260 252 250 248 249 248 256 254 257 257 256 254 253 250 250 250 253 249 245 247 249 250 250 250 251 250 251 251 250 250 250 252 252 251 253 253 251 251 251 251 251 250 250 250 250 249 249 248 249 248 247 245 245 245
247 243 245 241 246 247 249 249 250 253 250 252 251 250 249 251 247 245 245 246 248 248 249 250 251 250 249 250 251 251 252 251 251 249 251 252 252 252 251 251 251 251 251 249 249 248 246 244 244 244 245 243 243 243
240 245 242 242 243 243 245 244 245 245 248 247 248 251 250 247 244 242 245 246 247 248 248 248 249 249 248 249 248 249 250 251 251 249 250 250 250 249 248 248 248 249 251 249 248 246 245 245 243 244 244 244 247 245
240 242 247 248 245 245 244 245 245 243 242 242 244 247 245 242 241 244 248 250 249 249 250 250 249 247 246 245 246 246 246 247 245 245 246 246 246 245 245 243 242 244 246 243 243 243 244 243 244 245 245 245 243 242
245 245 242 245 243 243 239 240 240 239 241 243 243 241 240 241 241 246 249 251 251 250 248 245 244 243 241 241 240 242 241 244 243 245 246 247 245 242 241 241 242 252 246 244 244 246 244 245 246 248 247 246 246 244
245 246 246 242 243 244 242 241 241 243 244 242 240 241 242 245 245 246 249 250 247 244 241 240 242 241 241 240 239 238 238 241 240 239 237 238 239 242 242 241 241 243 242 241 248 251 250 250 250 248 244 244 246 244
244 246 243 243 241 241 244 244 244 247 245 245 246 246 245 245 246 249 247 244 242 240 239 237 236 235 236 235 237 239 237 236 238 239 237 237 239 240 241 241 242 242 243 240 245 244 248 247 246 242 242 242 243 243
245 245 242 243 242 244 245 246 247 247 245 244 243 242 239 243 244 244 242 239 237 235 236 236 236 234 236 236 234 234 238 237 236 237 238 238 239 240 240 242 243 242 242 242 241 241 243 243 242 241 241 241 240 242
241 238 241 241 241 244 243 241 241 241 240 239 240 238 239 237 237 239 242 238 236 237 238 236 234 238 237 237 236 237 242 241 240 241 240 242 242 242 244 245 246 246 244 243 242 243 242 240 241 241 241 240 240 240
238 237 236 237 238 237 237 239 238 238 238 236 237 236 236 238 239 242 243 240 241 240 239 239 239 239 239 239 240 239 242 240 240 247 249 250 249 249 249 246 246 244 243 241 242 242 241 240 240 240 240 240 240 240
Wind_Speed
22 24 22 22 21 19 19 19 18 18 19 19 19 18 18 19 17 8 2 8 5 3 4 6 5 3 1 2 5 5 6 1 2 5 3 3 3 5 2 3 8 13 11 11 11 12 16 6 2 10 2 4 1 4
21 21 21 21 20 18 17 18 19 19 18 18 19 21 18 19 20 13 2 4 2 1 1 2 1 2 3 1 1 2 3 5 2 3 1 2 2 1 1 3 2 4 2 4 4 2 2 3 3 2 2 3 4 4
19 18 18 18 18 18 18 17 18 19 20 18 20 22 20 17 20 14 2 4 3 2 1 0 4 4 3 1 2 2 1 3 4 1 2 1 2 2 4 2 2 2 2 1 3 4 2 4 3 3 3 5 8 4
19 17 17 16 17 18 18 17 17 18 19 18 19 21 20 17 19 16 5 4 3 3 3 1 1 4 2 3 1 3 3 4 4 1 2 2 2 1 1 2 0 1 4 4 2 1 1 6 5 6 4 1 4 3
18 18 18 17 17 18 19 20 19 19 18 17 18 19 20 18 18 12 8 7 7 3 2 3 1 1 0 6 4 4 5 4 2 1 1 2 3 3 1 1 2 5 5 4 3 7 3 6 11 10 7 4 4 3
18 16 17 19 18 18 20 18 20 21 21 19 18 19 20 17 16 5 2 4 5 3 3 2 3 3 2 5 6 6 3 2 2 2 2 1 1 1 3 3 3 4 4 7 6 12 7 4 7 2 4 3 3 4
18 17 17 17 20 19 18 16 16 16 18 19 19 20 21 20 9 5 2 1 18 5 3 3 3 1 2 2 1 2 2 2 1 1 2 3 2 1 2 2 3 7 7 4 4 9 3 3 3 4 3 5 5 3
18 18 20 15 18 17 13 14 13 15 12 12 15 19 22 20 15 10 3 12 15 5 3 4 3 3 2 2 2 1 2 1 2 2 1 2 1 2 2 5 5 4 5 6 6 6 4 6 7 5 4 3 4 3
16 19 17 13 16 14 13 9 10 11 11 13 13 17 10 8 4 3 11 21 4 3 6 4 8 6 4 2 3 2 0 2 1 2 2 3 2 4 2 5 7 9 6 6 3 5 7 7 4 3 3 3 4 1
14 14 14 15 15 15 13 12 12 13 9 11 4 5 4 5 9 15 7 7 5 4 3 3 4 5 6 4 2 4 1 3 2 4 3 3 3 6 7 8 8 9 11 12 6 5 7 5 5 4 3 3 3 2
13 14 15 16 17 17 16 15 13 8 6 0 4 2 1 8 4 4 6 6 5 6 4 3 5 9 3 5 4 0 3 2 3 5 6 2 3 4 6 8 9 10 10 9 6 5 6 4 4 5 5 7 7 6
13 14 15 16 16 18 18 18 16 7 3 3 3 3 1 3 5 6 4 3 6 6 2 6 4 5 1 3 5 1 4 3 4 3 4 3 3 6 6 8 9 10 10 8 8 7 8 9 8 5 6 7 6 5
10 12 11 9 13 15 16 18 21 20 11 2 4 4 3 4 7 6 7 2 3 7 6 6 7 5 2 1 4 3 4 4 7 3 5 1 5 6 5 5 4 7 7 6 8 7 7 7 9 8 6 6 4 6
8 7 7 4 6 11 16 23 28 24 7 4 6 8 5 3 3 1 3 5 2 7 10 9 6 4 3 3 4 5 3 5 4 4 6 1 3 3 5 5 5 7 7 8 8 8 8 8 9 10 10 8 7 9
4 0 8 11 19 18 21 20 21 6 4 3 3 7 5 2 3 1 3 2 1 8 12 7 4 4 3 5 3 5 4 5 6 5 2 3 4 5 6 5 6 6 6 6 5 6 7 7 8 9 8 8 8 9
1 5 5 21 18 19 6 9 5 5 5 3 9 4 3 4 2 4 5 3 4 8 4 5 4 4 3 6 5 4 9 5 3 3 3 4 5 5 4 4 4 4 4 4 4 4 5 6 5 4 5 8 8 7
11 3 16 18 11 12 17 7 4 8 5 5 3 2 5 5 5 2 4 5 8 4 4 4 4 2 5 4 3 6 5 3 4 5 4 6 5 3 2 3 4 4 4 4 2 4 3 1 4 8 10 5 4 5
3 6 17 11 5 6 5 8 5 7 8 4 3 4 3 7 3 4 5 7 6 3 4 4 6 8 5 4 4 3 5 5 6 6 5 5 5 5 5 5 4 3 3 4 3 4 5 6 8 5 3 2 3 3
10 11 18 15 9 6 5 6 5 6 4 1 3 4 5 4 7 7 7 7 6 6 6 7 11 6 5 5 5 5 5 5 3 3 4 4 4 5 5 4 4 5 4 4 4 4 3 5 4 3 2 3 2 2
5 21 21 20 10 5 6 4 3 6 4 2 4 5 4 4 5 6 10 9 6 6 11 10 5 3 4 3 4 3 3 4 3 2 4 5 4 4 4 2 2 2 2 3 5 6 4 5 6 5 4 4 3 3
11 11 17 8 6 8 6 4 5 3 4 4 1 3 4 3 5 8 7 8 9 10 6 5 3 3 1 1 2 2 3 4 3 2 1 3 3 3 3 4 4 4 5 5 6 6 7 5 3 3 3 2 2 2
5 15 5 10 6 5 5 6 3 2 4 3 4 4 5 4 5 7 4 11 8 5 4 3 3 3 3 4 4 3 3 3 2 3 5 4 4 3 4 5 4 5 6 5 5 4 3 3 3 3 3 4 3 2
9 8 7 10 8 8 4 5 4 6 4 4 3 5 5 4 4 4 9 7 4 5 4 2 2 1 2 2 3 5 6 5 5 4 4 4 4 5 5 6 5 5 5 5 4 3 3 5 4 4 3 4 3 3
13 11 10 8 10 4 5 6 5 4 4 4 5 5 5 4 3 7 8 4 4 5 6 8 6 2 2 6 7 7 6 4 4 5 5 4 5 5 5 5 5 5 4 2 4 3 4 4 5 4 4 3 4 3
15 14 9 11 7 8 8 6 7 5 6 6 5 5 4 3 6 7 5 3 5 6 6 6 5 6 5 5 5 6 7 5 4 5 6 4 2 2 3 3 4 6 5 5 6 5 4 3 3 4 4 3 4 5
14 9 8 9 7 6 6 5 7 9 5 5 6 3 3 5 7 6 3 2 3 4 5 5 6 4 5 6 4 5 6 5 1 4 4 5 5 4 3 4 3 3 6 4 4 4 5 4 4 6 5 6 6 5
10 8 5 4 3 4 4 4 4 6 7 7 4 4 4 8 6 3 1 3 2 2 4 5 4 4 3 3 3 3 3 4 2 3 2 3 4 3 4 3 2 3 3 3 3 2 4 5 6 6 6 4 3 4
5 6 8 9 5 5 5 5 7 7 5 5 2 7 5 5 3 1 2 3 3 3 3 3 3 2 1 1 2 4 4 5 3 3 3 3 3 3 3 2 2 8 4 3 3 4 3 4 5 7 5 5 7 4
5 6 3 7 5 7 8 6 5 3 3 2 3 4 4 3 1 2 3 3 3 3 4 4 4 4 4 4 3 3 3 4 5 5 3 3 4 4 4 3 3 4 3 3 7 8 8 8 9 9 6 7 8 6
8 6 4 6 7 9 6 3 4 4 2 1 5 8 5 4 3 4 3 4 3 1 1 1 1 3 2 3 4 5 2 1 3 4 3 3 5 4 4 5 5 5 4 3 5 5 8 8 7 5 6 6 6 7
5 5 6 6 6 3 3 3 4 6 5 6 6 6 3 3 2 3 2 1 1 2 2 3 4 1 2 3 1 3 4 3 3 4 5 4 5 5 5 6 5 5 4 4 4 4 7 9 7 8 9 10 10 10
5 5 3 4 2 3 5 4 2 3 4 5 4 3 4 5 2 4 3 3 3 3 3 2 2 4 4 4 3 4 8 5 5 5 6 5 5 6 7 6 6 6 4 3 4 6 7 8 8 9 10 12 12 12
4 5 4 4 5 6 5 5 5 3 5 4 3 0 1 4 3 5 3 3 4 4 4 4 4 4 4 5 5 4 6 5 7 10 12 13 13 12 8 4 4 3 4 5 5 7 9 10 10 11 11 12 13 13
Wind_Direction
267 263 260 252 257 263 268 262 262 265 267 269 273 255 270 282 267 253 153 184 160 209 206 181 179 154 97 200 199 147 101 172 147 213 214 194 206 200 184 137 168 176 179 208 222 232 239 180 48 179 249 342 2 73
268 262 257 252 256 258 265 268 269 265 261 266 270 260 254 272 286 237 153 179 135 195 353 328 38 150 150 40 139 244 107 145 171 181 172 112 158 137 69 205 352 198 205 174 211 213 327 4 10 79 325 141 45 61
266 262 259 254 254 253 259 271 272 269 266 259 262 264 253 263 277 240 144 143 110 102 265 192 189 177 135 149 336 202 261 130 170 184 133 112 161 140 170 205 97 240 312 81 161 14 360 340 293 303 357 51 21 36
261 258 256 256 256 259 262 260 265 261 257 262 258 262 253 251 269 244 171 173 160 133 199 205 321 114 147 147 220 275 119 72 85 154 134 165 145 233 154 104 203 81 132 98 53 339 23 310 282 286 308 355 4 34
256 256 256 252 255 255 258 259 263 267 265 260 257 256 253 240 262 270 181 183 198 173 181 134 149 86 309 155 198 139 135 120 132 114 161 139 101 130 12 59 226 177 151 168 190 185 170 221 217 223 226 222 200 161
257 257 260 263 258 256 257 260 267 270 262 254 249 251 259 238 256 241 161 197 168 118 116 119 60 14 342 149 151 104 78 62 89 122 107 75 46 200 160 190 187 167 172 171 167 184 209 272 225 238 232 127 137 144
251 255 260 258 265 253 251 267 270 268 253 247 246 244 250 243 237 222 196 139 159 103 146 123 140 121 357 100 56 107 149 102 65 113 108 140 149 176 74 198 184 168 178 218 178 120 135 180 208 187 132 129 131 129
257 255 261 260 260 246 253 261 277 266 261 254 255 256 244 236 245 241 197 144 147 115 177 162 106 153 199 142 91 299 111 89 5 106 31 107 90 55 220 244 48 66 107 71 94 45 66 109 86 60 55 67 74 126
271 266 259 259 251 244 245 261 282 267 267 276 265 252 228 212 213 185 165 160 165 187 174 135 150 171 165 96 119 21 141 83 266 133 191 107 161 207 27 30 67 16 30 344 30 61 50 69 75 76 83 62 103 116
266 263 254 248 245 246 244 237 245 262 277 282 265 183 200 188 141 148 141 189 196 184 166 136 98 138 170 141 142 102 114 151 138 235 104 122 220 87 50 44 43 19 15 359 33 25 17 37 31 10 354 12 43 41
265 264 260 253 244 245 248 244 249 276 307 346 242 206 48 171 163 166 205 181 165 183 137 149 126 135 252 125 135 187 172 165 129 245 125 223 266 109 25 38 26 20 14 21 11 359 9 1 1 13 32 41 36 27
258 267 270 260 251 242 242 242 238 225 186 255 318 88 121 226 200 191 184 158 190 143 128 121 152 114 150 125 104 244 136 152 191 156 97 246 87 60 28 15 13 14 5 7 14 17 22 33 14 10 35 34 32 30
282 277 265 274 272 266 265 256 248 226 248 50 258 166 180 232 213 184 149 205 117 132 174 149 127 126 104 124 92 143 136 184 128 83 211 153 86 53 16 6 4 14 10 22 23 25 37 48 40 37 38 22 44 55
101 63 43 307 260 278 272 257 245 233 208 175 221 173 205 180 244 145 202 143 158 133 137 135 110 115 130 109 138 131 93 116 161 142 229 88 47 1 23 17 15 357 7 25 22 23 32 43 46 35 30 24 41 43
199 214 3 339 324 308 287 250 219 139 111 209 259 183 166 116 97 283 293 37 301 155 134 110 72 91 97 110 89 115 154 168 185 201 91 71 48 37 27 16 11 2 359 21 13 27 35 36 52 50 25 29 47 58
351 35 1 332 328 332 261 190 73 90 65 60 27 10 316 85 33 41 347 16 354 131 89 73 110 126 122 126 151 181 146 176 133 76 68 94 71 48 23 15 8 343 4 28 22 44 48 41 58 66 41 43 44 60
62 11 326 328 336 27 31 76 61 55 66 53 49 38 297 46 78 79 3 338 325 204 84 97 112 114 109 110 78 16 54 43 91 83 76 59 60 41 1 56 28 21 23 16 29 45 70 51 77 74 65 19 36 56
31 313 350 352 12 54 31 28 76 66 66 26 69 0 54 11 13 39 1 351 329 24 44 76 28 53 39 89 96 54 75 71 61 70 51 45 43 34 40 42 30 30 33 18 30 23 32 49 63 61 53 16 37 39
50 18 21 36 61 72 61 33 17 89 70 19 71 50 74 88 55 36 10 359 36 13 64 47 55 44 53 36 39 35 31 26 13 56 87 82 60 39 30 50 50 42 37 38 37 47 47 48 54 37 27 64 78 352
14 21 21 35 39 67 64 29 346 76 77 76 34 33 61 61 6 26 28 17 25 52 52 46 47 35 28 23 14 360 10 347 307 145 80 62 41 62 34 23 53 22 53 52 44 41 47 43 26 24 19 25 47 27
36 348 5 44 53 55 68 4 57 41 86 70 23 50 78 68 36 14 28 4 54 35 65 47 37 35 325 35 21 337 33 356 18 24 55 73 33 43 33 2 29 39 48 43 57 51 47 40 355 347 30 17 354 14
352 4 42 14 72 71 68 20 40 59 62 80 70 50 41 28 31 25 23 39 66 32 31 4 4 344 13 27 18 17 320 302 335 50 53 39 40 29 30 21 39 59 52 40 35 39 43 5 348 348 23 320 340 347
10 23 47 13 63 39 17 340 44 15 59 66 56 50 38 43 29 26 69 49 67 24 9 341 288 246 27 62 56 37 15 35 51 41 55 67 59 61 60 48 37 47 52 30 16 30 20 10 357 347 340 334 338 344
30 43 30 38 22 23 333 32 12 32 46 49 50 63 43 32 50 65 71 65 22 8 14 4 11 55 55 50 49 34 7 4 66 48 18 70 73 58 57 57 47 43 24 343 20 11 9 3 1 357 348 339 336 339
65 3 36 5 358 12 26 22 8 15 59 29 68 56 44 18 65 61 62 37 11 16 14 6 37 34 42 43 40 40 20 12 51 68 25 19 77 94 88 94 76 54 29 26 16 10 352 349 352 343 334 332 332 322
67 18 39 3 4 23 5 34 21 16 14 60 43 65 49 65 68 64 66 13 13 17 14 9 15 23 38 29 27 16 4 347 359 73 43 35 40 52 47 43 14 34 19 10 353 337 333 330 331 332 317 315 320 324
45 355 12 32 357 338 51 42 22 44 45 30 359 21 45 65 66 68 99 31 50 27 37 27 23 29 25 356 337 327 339 352 64 151 131 78 71 73 89 88 355 277 336 339 339 310 290 300 306 303 293 290 281 278
44 35 12 355 40 8 61 42 31 20 5 341 360 34 68 63 89 71 62 67 67 72 66 38 11 19 36 334 311 342 342 339 354 30 34 62 85 102 88 32 312 339 327 304 289 288 288 282 290 299 323 312 303 278
21 345 351 10 22 51 37 26 16 9 342 318 79 76 87 58 1 60 47 63 51 63 45 13 349 354 1 356 15 7 12 21 63 55 36 309 335 306 9 346 311 302 292 295 303 320 306 311 330 323 307 288 288 278
346 349 48 24 47 45 4 19 349 2 351 18 90 97 65 43 11 17 38 32 48 83 207 174 275 50 2 16 328 338 322 72 103 123 168 246 245 277 307 297 293 287 284 280 291 295 305 312 297 304 296 293 290 289
324 6 42 33 69 9 323 320 67 58 39 48 32 67 96 139 341 339 75 180 144 58 55 354 334 317 54 0 2 344 317 288 206 234 236 244 262 266 269 274 269 267 267 271 277 279 289 299 292 287 288 287 286 286
22 32 56 59 31 341 12 29 9 57 6 44 0 48 12 46 15 284 239 99 38 24 272 185 225 276 225 225 229 228 237 267 275 264 266 267 264 255 260 263 263 256 248 252 270 284 286 281 287 286 286 286 284 283
29 25 34 50 16 9 339 18 26 24 28 32 346 240 188 155 189 252 286 180 177 197 225 232 233 252 255 256 250 257 250 238 251 270 291 292 291 285 279 259 266 219 255 262 268 276 278 276 278 279 280 279 281 283